Location: *
(40.7873°S, 98.7174°E)
Time: 09:30:37
(UTC+00:00)

Cosmos 2016 Rocket - Pass Details

Date: 24 May 2022
Orbit: 946 x 1001 km, 83.0° (Epoch: 04 July)

Event Time Altitude Azimuth Distance (km) Brightness Sun altitude
Rises 11:35:19 0° 184° (S) 3,674 6.9 -15.9°
Reaches altitude 10° 11:37:54 10° 179° (S) 2,728 6.2 -16.3°
Maximum altitude 11:44:02 56° 101° (E) 1,159 4.0 -17.5°
Drops below altitude 10° 11:50:10 10° 23° (NNE) 2,734 6.2 -18.6°
Sets 11:52:45 0° 18° (NNE) 3,682 7.0 -19.1°
